RH
12 12 18 29 36 28 17 27 41 53 44 45 47 49 47 32 27 14 21 19 12 22 92 100 70 45 94 100 100 88 87 92 98 100 99 94 64 46 44 37 33 39 59
14 18 25 37 33 21 18 39 45 44 39 31 28 24 21 19 17 18 27 32 26 13 21 89 100 70 57 98 100 98 80 83 98 100 99 94 74 53 52 44 37 31 28
18 20 31 38 27 14 18 32 38 39 37 40 43 38 29 27 30 31 29 30 35 40 21 18 85 100 85 70 100 97 86 81 96 100 100 100 100 80 55 44 41 35 26
21 30 39 33 17 15 17 23 28 30 28 25 22 27 39 40 31 27 28 28 29 32 46 24 16 86 100 93 64 81 75 72 92 100 100 100 100 95 68 41 38 35 29
28 38 40 25 19 15 17 19 18 17 15 14 14 14 16 18 28 43 38 28 28 28 42 42 16 17 93 100 95 66 62 65 81 100 100 100 100 99 72 49 35 31 28
35 40 31 35 25 16 18 17 13 12 11 10 10 10 10 10 11 16 33 42 42 40 40 38 31 10 25 94 100 96 59 67 74 100 100 100 100 100 100 67 53 52 25
39 40 38 31 17 17 17 12 11 9 7 6 6 7 8 8 10 11 16 22 31 38 36 34 28 19 9 41 90 100 94 81 82 93 100 100 100 100 100 85 66 52 55
43 42 41 25 20 18 13 11 8 6 6 6 6 5 6 6 8 10 11 14 17 21 26 23 24 23 13 9 58 96 100 98 96 88 100 100 100 100 100 100 89 81 70
47 44 33 25 19 14 11 7 8 12 13 8 6 5 5 6 7 9 10 11 11 13 14 16 14 18 19 10 12 69 93 99 100 100 100 100 100 100 100 100 100 100 89
43 43 28 20 16 12 8 11 19 19 13 8 6 5 6 6 7 8 9 10 11 11 11 11 11 11 14 16 9 24 74 96 100 100 100 100 100 100 100 100 100 99 100
43 28 22 19 13 8 12 19 16 12 10 7 6 6 7 8 9 10 12 13 15 13 12 12 10 9 9 15 11 8 48 83 96 100 100 98 97 99 100 100 100 100 100
25 23 20 16 9 11 27 16 13 10 9 8 9 15 26 44 60 60 57 50 50 46 36 27 18 12 9 9 13 8 13 61 87 99 100 98 96 100 100 100 97 100 100
24 21 19 12 11 31 25 13 13 12 12 35 69 84 82 82 98 99 92 82 74 73 67 38 27 18 12 9 8 7 8 40 72 90 100 100 98 100 100 100 90 75 100
23 21 16 9 26 49 46 15 26 60 94 100 100 100 100 99 98 99 99 100 100 100 76 78 32 20 15 11 9 7 8 18 57 78 100 100 98 84 99 100 90 56 50
22 21 13 17 43 60 68 24 96 98 100 100 100 100 100 100 94 90 92 100 100 100 98 70 43 21 15 14 11 9 8 10 38 66 94 100 100 63 51 99 91 89 75
25 19 10 34 57 69 90 100 86 95 100 100 100 100 100 100 100 100 100 100 100 95 54 42 37 22 17 16 13 10 8 9 16 45 65 100 100 98 33 27 74 90 92
26 16 12 45 67 74 92 99 100 100 81 100 100 100 100 100 100 100 100 99 61 37 29 24 21 19 17 14 12 10 8 8 10 19 47 80 100 100 99 95 98 66 78
23 14 17 50 70 70 90 98 96 98 100 100 98 100 100 100 100 100 100 100 74 27 25 26 29 26 15 12 11 10 8 7 8 13 30 55 100 100 100 100 100 100 100
21 12 24 50 69 68 84 90 84 89 95 92 100 99 100 100 100 100 100 100 100 100 81 27 21 24 21 13 11 11 8 7 8 10 20 28 72 84 91 99 100 98 80
21 11 24 46 58 71 78 88 85 89 85 81 100 100 100 100 100 100 100 100 99 100 100 100 71 25 19 22 16 12 9 7 9 8 14 15 46 95 87 74 45 19 11
21 11 21 45 51 64 71 82 80 88 81 78 99 100 100 100 100 100 100 100 100 100 100 100 100 100 81 15 18 15 9 7 8 7 8 11 10 10 14 14 11 11 22
22 13 14 43 49 47 65 72 81 86 75 83 99 100 100 100 100 100 100 100 100 100 89 92 49 63 55 13 11 12 9 7 7 7 7 7 8 7 7 11 16 59 100
22 13 12 38 50 47 53 59 70 85 74 90 100 100 100 100 100 100 100 100 100 100 100 91 46 50 20 11 11 10 8 7 8 7 7 7 16 60 87 93 89 85 95
23 14 13 35 49 51 47 52 59 78 77 95 100 100 100 100 100 100 100 100 100 100 100 100 100 100 100 100 93 41 12 18 39 72 79 93 91 98 100 100 100 100 97
24 16 13 38 54 58 54 47 53 63 83 98 100 100 100 100 100 100 100 100 100 100 100 100 100 100 100 100 100 100 100 100 100 100 100 100 100 100 100 100 100 100 100
24 17 13 35 52 58 55 51 48 53 83 97 100 100 100 100 100 100 100 100 100 98 100 100 100 100 100 100 100 100 99 99 99 100 100 100 100 100 100 100 100 100 100
Wind_Speed
86 90 94 95 86 72 63 59 53 48 45 43 39 38 36 35 33 32 30 27 25 26 25 25 31 42 47 49 53 52 51 46 45 57 65 66 64 61 61 61 59 58 58
87 93 94 91 78 68 61 56 53 50 48 45 41 38 36 35 32 31 30 28 25 25 26 26 26 32 43 48 49 53 52 51 48 48 62 67 66 64 63 63 62 62 62
91 95 95 84 71 65 62 58 57 55 52 50 49 45 41 39 36 34 33 32 29 26 25 26 28 26 33 44 47 47 52 52 51 49 53 63 71 69 64 64 64 64 64
94 94 87 76 68 69 67 64 60 58 56 54 51 49 47 46 44 42 38 36 34 31 31 28 29 30 29 36 43 45 48 52 52 50 48 59 64 70 65 64 65 66 64
93 89 80 70 70 73 69 66 66 65 62 59 56 53 51 51 50 49 47 43 39 37 35 33 30 32 31 32 37 42 46 49 52 53 49 51 65 67 64 62 62 63 62
89 82 73 76 75 76 72 73 71 65 61 56 53 50 49 50 50 51 48 47 45 44 42 37 34 33 34 32 35 40 43 47 51 53 54 50 58 66 60 61 59 60 64
86 77 77 77 78 77 78 76 71 67 61 54 50 45 42 42 42 44 48 44 42 42 42 41 37 35 35 36 34 38 40 43 47 49 50 54 55 65 66 65 59 55 58
79 76 78 79 81 81 80 76 71 64 56 49 44 40 36 36 36 37 41 44 43 43 42 41 40 39 36 38 38 36 39 39 43 46 45 49 51 60 65 65 68 59 59
75 76 80 81 82 82 79 74 65 56 49 41 37 33 29 29 30 31 33 37 41 43 43 43 42 41 41 38 40 39 37 38 40 44 44 48 51 53 64 67 61 60 65
74 78 79 81 83 81 75 66 57 50 40 33 28 25 20 22 22 24 26 28 32 38 42 44 44 45 45 42 41 41 40 38 37 42 43 47 49 50 53 60 65 59 57
75 77 78 82 82 77 67 59 51 41 31 25 19 16 15 14 15 17 19 21 25 29 33 37 41 44 47 46 42 43 42 42 39 38 41 46 47 48 48 50 56 55 50
73 73 79 80 77 69 60 52 43 32 23 16 12 10 9 8 10 14 15 16 18 22 27 30 35 39 43 48 46 45 45 44 41 36 39 46 45 44 48 44 38 38 40
70 74 77 77 67 60 52 43 32 22 15 10 7 9 11 9 9 11 14 16 18 20 21 30 32 34 37 43 46 47 47 45 42 40 37 46 42 41 42 49 43 41 43
69 73 74 68 57 52 47 36 23 14 10 9 10 9 11 9 8 10 12 14 15 17 20 23 35 34 34 39 43 46 47 46 43 42 37 44 45 40 38 42 42 37 38
67 71 69 56 50 45 39 31 14 10 8 10 12 13 10 11 14 17 18 17 15 18 21 21 31 35 35 37 40 43 46 47 44 42 38 44 46 40 42 36 38 41 40
65 67 62 47 44 40 30 24 21 10 10 11 12 12 12 14 17 20 20 16 15 14 13 19 26 32 33 35 38 41 45 47 46 43 42 39 50 44 39 41 42 44 43
63 63 52 41 40 33 28 21 16 22 17 9 10 11 13 14 13 13 14 13 9 7 7 9 17 24 30 34 38 41 44 46 45 45 42 39 39 53 49 46 41 41 40
61 60 44 37 36 30 27 22 17 16 15 17 14 12 13 12 12 11 8 4 3 2 5 6 12 18 24 32 37 40 43 45 44 45 42 41 37 38 51 47 46 43 39
57 54 37 34 33 28 25 21 18 18 15 14 14 14 12 12 9 7 7 6 6 5 5 6 13 16 21 27 33 37 41 44 43 44 43 41 39 37 35 39 39 38 36
55 51 35 30 30 26 24 22 19 19 16 12 11 12 12 12 8 8 5 5 7 6 6 5 8 11 23 25 31 35 39 43 42 40 43 42 41 39 40 39 39 37 36
52 47 32 28 28 26 22 21 18 17 15 11 10 11 8 7 6 6 6 5 2 1 5 7 10 14 11 28 32 34 38 43 40 38 40 41 40 40 41 39 38 35 33
49 45 31 24 25 24 20 19 17 15 13 9 10 9 7 5 4 5 6 8 11 11 17 12 13 14 18 26 32 33 38 42 39 36 36 35 36 36 36 36 36 36 37
46 43 33 24 22 22 21 17 16 15 12 7 8 6 4 2 4 7 9 11 13 16 19 25 31 32 30 28 31 35 39 41 37 35 34 33 34 33 29 29 31 33 37
43 40 31 24 21 20 20 17 15 13 10 6 6 4 2 3 6 9 11 12 15 17 18 19 19 21 22 26 32 33 35 36 36 36 34 29 32 32 31 31 32 33 35
41 38 30 23 21 19 18 17 13 12 10 5 5 3 2 5 8 12 13 14 17 20 19 18 19 21 25 28 28 33 34 34 33 32 31 31 30 30 28 28 28 27 28
38 36 29 23 20 17 17 15 13 10 9 6 5 5 4 7 11 13 14 15 15 18 18 19 22 23 27 32 33 34 33 32 32 31 30 30 29 28 27 27 26 26 26
Wind_Direction
324 324 323 321 322 323 319 318 317 314 312 309 305 299 294 290 283 280 281 286 286 282 271 266 253 239 231 229 226 228 226 226 224 219 217 215 219 220 219 217 215 216 218
324 325 322 322 323 323 320 317 314 310 307 304 301 297 291 289 282 276 275 276 283 284 274 263 260 247 236 232 229 225 223 223 224 219 221 216 217 220 223 222 219 219 221
324 325 323 322 324 323 319 314 310 307 304 298 293 290 285 281 278 273 269 269 270 276 279 266 255 254 242 236 233 229 223 220 221 223 222 222 219 218 223 224 223 224 222
324 323 322 323 324 321 317 314 310 306 302 298 293 286 280 275 272 271 269 265 265 268 271 269 256 248 245 237 234 230 227 222 220 221 221 221 219 218 219 225 225 225 226
323 322 322 323 323 320 317 315 311 307 303 297 291 284 277 272 268 264 264 263 262 262 264 262 258 248 240 239 231 228 226 224 222 218 219 219 218 219 218 225 227 227 228
322 321 321 323 322 319 318 316 314 311 307 301 295 287 279 274 266 258 258 258 259 258 258 255 252 248 239 234 233 226 224 223 222 219 217 217 218 217 218 224 228 228 228
321 320 321 322 320 320 320 318 316 312 308 302 295 288 280 274 267 258 252 251 251 251 249 247 245 245 239 232 230 229 224 222 222 220 218 215 215 216 219 220 225 227 230
320 321 322 321 321 322 321 320 316 313 309 303 295 288 281 273 265 259 252 247 245 246 245 244 241 239 239 232 227 227 226 222 222 220 219 219 216 215 220 222 223 225 228
321 321 323 322 322 323 323 320 319 317 312 304 296 289 283 273 266 259 255 249 244 242 242 241 238 236 236 232 226 222 224 223 221 219 220 220 219 218 216 218 223 224 228
320 322 323 323 325 325 324 323 322 318 314 304 298 290 282 273 267 261 255 250 246 243 241 241 239 234 231 230 226 221 220 222 220 217 218 220 218 218 218 219 218 223 226
323 324 324 326 326 325 327 327 324 322 318 309 302 292 284 275 268 260 257 249 243 241 240 239 236 232 229 226 225 219 217 219 217 216 217 217 216 212 214 216 217 216 217
325 326 326 328 327 329 330 329 327 325 322 317 311 299 293 289 281 275 268 261 252 247 241 236 232 228 224 221 220 217 214 216 215 215 215 213 214 207 205 205 208 208 207
327 327 329 329 330 331 332 335 334 334 335 334 331 319 315 314 297 285 278 273 262 251 252 234 227 223 220 218 216 214 212 213 212 212 209 209 206 210 199 201 199 204 209
327 329 331 331 332 336 335 338 340 347 347 336 331 324 321 321 310 300 291 291 278 263 245 237 221 217 213 214 213 211 209 208 209 208 206 205 200 204 209 200 198 203 206
328 331 333 333 337 338 339 341 349 354 335 320 323 321 328 311 308 308 310 307 284 265 253 238 221 217 211 210 211 208 206 204 205 206 205 203 199 195 201 206 198 203 206
331 333 334 336 339 340 345 344 348 342 325 311 310 313 315 311 297 296 299 301 292 278 250 224 215 214 210 208 208 205 202 200 201 203 203 200 197 192 194 194 197 203 205
334 334 336 337 340 341 343 345 338 334 342 294 308 314 318 312 310 306 305 305 288 270 234 207 208 208 205 202 203 201 198 198 198 200 201 199 200 198 199 197 197 196 201
335 336 335 338 341 340 344 343 335 335 328 326 322 330 328 331 333 320 314 346 19 237 209 175 183 183 189 195 196 196 195 195 195 197 197 198 196 191 202 208 203 203 202
335 337 334 336 341 340 343 343 341 340 335 331 323 337 341 347 3 14 23 16 24 33 90 158 187 177 183 183 187 190 191 191 192 193 194 195 196 192 190 189 192 198 204
334 338 332 334 338 340 340 341 339 339 340 331 323 333 337 355 1 350 340 289 280 237 201 150 123 158 188 181 182 184 187 187 188 188 190 191 193 192 190 195 199 199 199
335 338 331 331 335 338 337 338 337 338 337 326 323 332 350 352 346 5 1 22 56 174 134 166 193 207 169 183 178 176 179 180 182 185 186 189 190 192 193 196 195 198 201
334 338 333 326 330 335 333 333 331 332 333 319 320 336 358 357 42 50 59 64 92 116 124 126 142 157 164 162 167 170 171 173 176 176 179 182 185 187 188 191 193 191 189
333 338 333 325 323 335 333 330 333 330 331 311 318 334 351 49 103 100 93 86 95 108 129 119 117 109 120 139 149 156 160 166 171 173 175 177 177 175 174 178 182 189 194
332 338 331 321 318 315 328 328 324 324 323 297 308 316 337 140 134 128 114 105 104 122 128 128 128 127 127 130 128 136 147 153 159 160 163 173 181 186 186 186 188 192 197
332 338 330 320 314 317 314 320 314 317 315 287 283 269 202 170 163 150 140 121 113 110 116 138 138 136 141 146 153 155 156 161 166 168 166 165 166 172 179 185 191 196 203
332 337 329 319 312 312 317 311 306 303 301 270 252 238 200 179 171 169 160 152 135 131 128 125 139 146 146 149 150 151 153 156 158 160 163 168 174 180 186 193 197 201 205